{"data":{"norad_id":40554,"epoch":"2026-09-20T04:25:13.990080Z","epoch_age_seconds":68438,"freshness":"FRESH","line1":"1 40554U 15020C   26263.18418970  .00000068  00000+0  42027-3 0  9994","line2":"2 40554  82.4897 331.5448 0014958 123.2931 236.9583 12.42887418520507","mean_motion":12.42887418,"eccentricity":0.0014958,"inclination_deg":82.4897,"raan_deg":331.5448,"arg_perigee_deg":123.2931,"mean_anomaly_deg":236.9583,"bstar":0.00042027,"rev_number":52050,"period_min":115.85924671417,"perigee_km":1482.611042797,"apogee_km":1506.1624848889,"semimajor_km":7872.523763843,"source":"CELESTRAK","updated_at":"2026-09-20T09:00:14.067921Z"}}